TimeEDT,TemperatureF,Dew PointF,Humidity,Sea Level PressureIn,VisibilityMPH,Wind Direction,Wind SpeedMPH,Gust SpeedMPH,PrecipitationIn,Events,Conditions,WindDirDegrees,DateUTC
12:53 AM,66.0,57.9,75,30.02,10.0,SE,8.1,-,N/A,,Clear,130,2013-09-09 04:53:00
1:53 AM,64.9,57.0,75,30.03,10.0,SE,6.9,-,N/A,,Clear,130,2013-09-09 05:53:00
2:53 AM,66.0,54.0,65,30.02,10.0,ESE,8.1,-,N/A,,Overcast,120,2013-09-09 06:53:00
3:53 AM,66.0,52.0,60,30.00,10.0,ESE,5.8,-,N/A,,Mostly Cloudy,110,2013-09-09 07:53:00
4:53 AM,64.9,51.1,61,29.99,10.0,ESE,6.9,-,N/A,,Scattered Clouds,120,2013-09-09 08:53:00
5:53 AM,64.9,52.0,63,29.98,10.0,ESE,6.9,-,N/A,,Clear,120,2013-09-09 09:53:00
6:53 AM,64.0,53.1,67,29.99,10.0,ENE,5.8,-,N/A,,Partly Cloudy,60,2013-09-09 10:53:00
7:53 AM,64.0,53.1,67,29.99,10.0,ESE,8.1,-,N/A,,Clear,120,2013-09-09 11:53:00
8:53 AM,64.9,55.9,73,30.00,10.0,ESE,4.6,-,N/A,,Clear,120,2013-09-09 12:53:00
9:53 AM,66.9,57.0,70,30.00,10.0,SE,8.1,-,N/A,,Partly Cloudy,140,2013-09-09 13:53:00
10:53 AM,71.1,61.0,70,30.00,10.0,SE,8.1,-,N/A,,Scattered Clouds,140,2013-09-09 14:53:00
11:53 AM,75.9,64.0,67,29.98,10.0,SE,8.1,-,N/A,,Scattered Clouds,140,2013-09-09 15:53:00
12:53 PM,82.0,66.9,60,29.96,10.0,SSW,8.1,-,N/A,,Partly Cloudy,200,2013-09-09 16:53:00
1:53 PM,84.9,68.0,57,29.95,10.0,South,8.1,-,N/A,,Clear,180,2013-09-09 17:53:00
2:53 PM,88.0,69.1,53,29.93,9.0,South,13.8,20.7,N/A,,Clear,190,2013-09-09 18:53:00
3:53 PM,91.9,69.1,47,29.90,10.0,South,11.5,-,N/A,,Partly Cloudy,190,2013-09-09 19:53:00
4:53 PM,91.9,68.0,45,29.88,10.0,SSW,12.7,-,N/A,,Clear,210,2013-09-09 20:53:00
5:53 PM,91.9,69.1,47,29.87,10.0,South,16.1,-,N/A,,Clear,190,2013-09-09 21:53:00
6:53 PM,90.0,70.0,52,29.88,10.0,SSW,8.1,-,N/A,,Clear,200,2013-09-09 22:53:00
7:53 PM,84.9,71.1,63,29.88,10.0,South,6.9,-,N/A,,Clear,190,2013-09-09 23:53:00
8:53 PM,82.9,71.1,67,29.89,10.0,South,8.1,-,N/A,,Clear,180,2013-09-10 00:53:00
9:53 PM,82.9,71.1,67,29.90,10.0,SSW,11.5,-,N/A,,Clear,200,2013-09-10 01:53:00
10:53 PM,82.0,71.1,69,29.90,9.0,SSW,11.5,-,N/A,,Clear,200,2013-09-10 02:53:00
11:53 PM,80.1,71.1,74,29.91,9.0,SSW,9.2,-,N/A,,Clear,210,2013-09-10 03:53:00